COSMOS 1275 DEB

Satellite information

Favourite Embed

Satellite Type and Status

DEBRISIN ORBIT

Key statistics

Satellite COSMOS 1275 DEB at a glance.

Uptime

16264

Days in orbit

Revolutions

≈ 13.6

Per day

Orbit

LEO

Low Earth Orbit

Inclination

82.9

Latest

Satellite identification and parameters

Extended collection of information and parameters for COSMOS 1275 DEB.

Object identification

Identified? True

Debris? True

Object name: COSMOS 1275 DEB

International designator: 1981-053JG

Object number (NORAD): 14440

Object ID (CCSDS): 14440

Country: COMMONWEALTH OF INDEPENDENT STATES (CIS)

Current information (Y/N): Y

RCS size: SMALL

Orbital parameters

Period: 105.556 minutes

Inclination: 82.9194 deg

SMA: 7398.58 km

Apoapsis: 1103.692 km

Periapsis: 937.198 km

RAAN: 332.7566 deg

Eccentricy: 0.01125178

Argument of periapsis: 201.0309 deg

Mean anomaly: 286.2233 deg

Mean motion: 13.642068 rev/day

Mean motion (dot): 0.00000861 rev/day2

B* drag term: 0.0010162894 1/REarth

Two-line elements (TLE)

Creation date: Dec. 13, 2025, 4:32 a.m.

Reference frame: TEME

Reference center: EARTH

Epoch: Dec. 12, 2025, 9:47 a.m. UTC

TLE line 0: 0 COSMOS 1275 DEB

TLE line 1: 1 14440U 81053JG 25346.40767853 .00000861 00000-0 10163-2 0 9998

TLE line 2: 2 14440 82.9194 332.7566 0112518 201.0309 286.2233 13.64206800188107

Live tracking on map

Real-time ground track for satellite COSMOS 1275 DEB.

In-orbit conjunctions

A list of the most updated potential collisions computed for object COSMOS 1275 DEB.

Target Orbit TCA Probability of collision Miss distance Type
SL-24 R/B SSO 2025-05-08 08:45:15 0.0002673984 126.0 (m) ROCKET BODY
DELTA 1 DEB SSO 2025-03-23 06:00:57 0.000281723 70.0 (m) DEBRIS
SCOUT A-1 R/B LEO 2024-12-20 08:56:13 0.0001132902 493.0 (m) ROCKET BODY

Associated space launch

Navigation satellite providing location information for the Tsiklon-B navigation system

COSMOS 1275 DEB was lifted into orbit during the mission ‘Kosmos-3M | Parus 27’, on board a Kosmos-3M space rocket.

The launch took place on June 4, 1981, 3:41 p.m. from 132/2.

For more information about the launch, click the button.

Launch to space Kosmos-3M | Parus 27
Kosmos-3M | Parus 27

Agency: N/A

Status: Launch Successful

Launch date: June 4, 1981, 3:41 p.m. UTC

Rocket: Kosmos-3M

Launch pad: 132/2

Location: Plesetsk Cosmodrome, Russian Federation

...

Latest news about this satellite

There are no fresh news available about this satellite. Check back as we update our databases every day.


Newsletter sign-up

Weekly statistics, charts and insights to help you stay on top of the space industry.